Location: Holbach
(51.5399°N, 10.6036°E)
Time: 14:23:47
(UTC+00:00)

ATLAS 2AS CENTAUR R/B - Visible Passes

Search period start: 30 November 2021 00:00
Search period end: 10 December 2021 00:00
Orbit: 958 x 1254 km, 63.7° (Epoch: 28 November)

Date Brightness Start Highest point End Pass type
(mag) Time Alt. Az. Time Alt. Az. Time Alt. Az.
30 Nov 3.5 15:53:27 10° WSW 16:01:06 54° NNW 16:08:27 10° NE visible
30 Nov 3.9 17:46:49 10° WNW 17:53:40 33° N 17:56:25 26° NNE visible
30 Nov 4.2 19:39:33 10° NW 19:43:52 30° NNW 19:43:52 30° NNW visible
30 Nov 5.4 21:30:59 10° NW 21:31:17 11° NW 21:31:17 11° NW visible
01 Dec 3.9 17:01:14 10° W 17:08:15 36° NNW 17:12:57 18° NE visible
01 Dec 3.9 18:54:20 10° NW 19:00:23 34° N 19:00:23 34° N visible
01 Dec 5.0 20:46:02 10° NW 20:47:48 18° NW 20:47:48 18° NW visible
02 Dec 3.8 16:15:38 10° W 16:22:53 40° NNW 16:29:29 11° NE visible
02 Dec 3.8 18:09:00 10° WNW 18:15:45 33° N 18:16:55 31° NNE visible
02 Dec 4.5 20:01:03 10° NW 20:04:20 27° NNW 20:04:20 27° NNW visible
03 Dec 3.9 17:23:32 10° WNW 17:30:19 32° N 17:33:28 24° NE visible
03 Dec 3.9 19:16:01 10° NW 19:20:53 35° NNW 19:20:53 35° NNW visible
03 Dec 5.2 21:07:22 10° NW 21:08:19 14° NW 21:08:19 14° NW visible
04 Dec 3.9 16:37:59 10° WNW 16:44:53 34° N 16:50:00 16° NE visible
04 Dec 3.6 18:30:53 10° NW 18:37:27 37° N 18:37:27 37° N visible
04 Dec 4.7 20:22:25 10° NW 20:24:52 23° NW 20:24:52 23° NW visible
05 Dec 3.8 15:52:22 10° W 15:59:29 37° NNW 16:06:17 10° NE visible
05 Dec 3.7 17:45:37 10° NW 17:52:25 34° N 17:54:01 31° NNE visible
05 Dec 4.1 19:37:27 10° NW 19:41:27 33° NNW 19:41:27 33° NNW visible
05 Dec 5.5 21:28:49 10° NW 21:28:53 10° NW 21:28:53 10° NW visible
06 Dec 3.8 17:00:14 10° WNW 17:06:59 32° N 17:10:37 22° NE visible
06 Dec 3.6 18:52:27 10° NW 18:58:02 42° N 18:58:02 42° N visible
06 Dec 5.0 20:43:46 10° NW 20:45:28 18° NW 20:45:28 18° NW visible
07 Dec 3.9 16:14:43 10° WNW 16:21:32 33° N 16:27:13 13° NE visible
07 Dec 3.4 18:07:22 10° NW 18:14:24 40° NNE 18:14:39 40° NNE visible
07 Dec 4.3 19:58:47 10° NW 20:02:06 29° NW 20:02:06 29° NW visible
08 Dec 3.6 17:22:11 10° NW 17:29:03 35° NNE 17:31:18 29° NE visible
08 Dec 3.6 19:13:50 10° NW 19:18:44 43° NNW 19:18:44 43° NNW visible
08 Dec 5.2 21:05:18 10° NW 21:06:10 13° NW 21:06:10 13° NW visible
09 Dec 3.7 16:36:52 10° NW 16:43:38 33° N 16:47:58 19° ENE visible
09 Dec 3.1 18:28:52 10° NW 18:35:25 52° NNE 18:35:25 52° NNE visible
09 Dec 4.7 20:20:11 10° NW 20:22:51 24° WNW 20:22:51 24° WNW visible
